This demonstration page uses our WeatherBlox Daily Observations layout. Learn more.

Left ArrowRight Arrow

39.08367, -84.50855

Hourly Observations for March 10, 2019

Temp ( °F °C ) Dew Point ( °F °C ) Humidity (%) Winds ( mph kmh ) Pressure ( in mb ) Visibility ( mi km ) Precip ( " mm )
12:53 am 00:53 Mostly Cloudy 59 15 52 11.1 78 78 SSW 17 28 29.62 1003 10 16 N/A
1:53 am 01:53 Cloudy 60 15.6 50 10 70 70 SW 22 35 29.65 1004 10 16 N/A
3:53 am 03:53 Cloudy 56 13.3 44 6.7 65 65 WSW 20 31 29.72 1007 10 16 N/A
4:53 am 04:53 Cloudy 54 12.2 43 6.1 67 67 WSW 14 22 29.76 1008 10 16 N/A
5:53 am 05:53 Cloudy 52 11.1 42 5.6 69 69 WSW 12 19 29.80 1009 10 16 N/A
6:53 am 06:53 Cloudy 50 10 40 4.4 68 68 W 17 28 29.86 1011 10 16 N/A
7:53 am 07:53 Cloudy 48 8.9 38 3.3 68 68 W 14 22 29.90 1013 10 16 N/A
8:53 am 08:53 Cloudy 46 7.8 36 2.2 68 68 WSW 20 31 29.92 1013 10 16 N/A
9:53 am 09:53 Cloudy 47 8.3 36 2.2 66 66 WSW 16 26 29.96 1015 10 16 N/A
10:53 am 10:53 Cloudy 47 8.3 34 1.1 61 61 W 22 35 29.99 1016 10 16 N/A
11:53 am 11:53 Mostly Cloudy 48 8.9 35 1.7 61 61 WSW 18 30 30.01 1016 10 16 N/A
12:53 pm 12:53 Partly Cloudy 51 10.6 37 2.8 59 59 WSW 17 28 30.03 1017 10 16 N/A
1:53 pm 13:53 Mostly Sunny 53 11.7 36 2.2 52 52 WSW 20 31 30.05 1018 10 16 N/A
2:53 pm 14:53 Mostly Sunny 54 12.2 34 1.1 47 47 W 17 28 30.05 1018 10 16 N/A
3:53 pm 15:53 Sunny 53 11.7 33 0.6 47 47 W 17 28 30.07 1018 10 16 N/A
4:53 pm 16:53 Sunny 52 11.1 32 undefined 47 47 WSW 22 35 30.11 1020 10 16 N/A
5:53 pm 17:53 Sunny 52 11.1 33 0.6 49 49 W 20 31 30.13 1020 10 16 N/A
6:53 pm 18:53 Sunny 50 10 31 -0.6 48 48 W 16 26 30.17 1022 10 16 N/A
7:53 pm 19:53 Mostly Clear 48 8.9 31 -0.6 52 52 W 15 24 30.19 1022 10 16 N/A
8:53 pm 20:53 Clear 47 8.3 31 -0.6 54 54 WNW 12 19 30.22 1023 10 16 N/A
9:53 pm 21:53 Clear 46 7.8 31 -0.6 56 56 W 14 22 30.24 1024 10 16 N/A
10:53 pm 22:53 Clear 45 7.2 32 undefined 61 61 WNW 8 13 30.26 1025 10 16 N/A
11:53 pm 23:53 Clear 44 6.7 31 -0.6 60 60 W 12 19 30.28 1025 10 16 N/A

Powered by AerisWeather